Flag for Germany Weather past 2 weeks in Sonneberg, Thuringia, Germany

45 °F

Light rain. Overcast.

Feels Like: 39 °F
Forecast: 41 / 46 °F
Wind: 12 mph from West

Location: Hof

Current Time: Dec 1, 2015 at 12:22:03 AM

Latest Report: Nov 30, 2015 at 11:00 PM

Visibility: 8 mi

Pressure: 29.91 "Hg

Humidity: 87%

Dew point: 41 °F

Location of SonnebergLocation

Historic Weather in Sonneberg — Graph


Sonneberg temperature yesterday

Maximum temperature yesterday: 45 °F (at 10:00 PM)
Minimum temperature yesterday: 39 °F (at 3:00 PM)
Average temperature yesterday: 43 °F

Past Weeks' High & Low Weather Summary

High54 °F (Nov 18, 3:00 AM)99% (Nov 27, 10:00 AM)30.33 "Hg (Nov 27, 10:00 AM)
Low27 °F (Nov 28, 1:00 AM)55% (Nov 16, 3:00 PM)29.41 "Hg (Nov 21, 12:00 PM)
Average38 °F86%29.90 "Hg
* Reported Midnight between Nov 15 and Nov 16 — Nov 30 11:00 PM, Sonneberg, Weather by CustomWeather, © 2015

Note: Actual official high and low records may vary slightly from our data, if they occured in-between our weather recording intervals... More about our weather records


Sonneberg weather history for previous 24 hours

Time TempWeatherWind HumidityBarometerVisibility
11:00 PM
Mon, Nov 30
45 °FLight rain. Overcast.12 mph87%29.91 "Hg8 mi
10:00 PM45 °FLight rain. Overcast.10 mph87%29.91 "Hg3 mi
9:00 PM44 °FLight rain. Overcast.8 mph89%29.91 "Hg5 mi
8:00 PM44 °FLight rain. Low clouds.8 mph91%29.94 "Hg2 mi
7:00 PM44 °FLight rain. Low clouds.8 mph90%29.95 "Hg3 mi
6:00 PM44 °FLight rain. Low clouds.7 mph91%29.96 "Hg2 mi
5:00 PM44 °FLight rain. Low clouds.7 mph93%29.98 "Hg1 mi
3:00 PM39 °FLight rain. Overcast.5 mph92%30.06 "Hg9 mi
2:00 PM40 °FLight rain. Overcast.6 mph84%30.09 "Hg16 mi
1:00 PM40 °FLight rain. Overcast.7 mph85%30.09 "Hg12 mi
12:00 PM41 °FOvercast.6 mph82%30.10 "Hg22 mi
11:00 AM41 °FOvercast.7 mph84%30.10 "Hg31 mi
10:00 AM41 °FOvercast.7 mph78%30.08 "Hg31 mi
9:00 AM41 °FOvercast.7 mph87%30.05 "Hg19 mi
4:00 AM44 °FRain. Overcast.10 mph91%29.89 "Hg2 mi
3:00 AM44 °FLight freezing rain. Overcast.9 mph90%29.87 "Hg2 mi
1:00 AM44 °FLight freezing rain. Overcast.9 mph91%29.85 "Hg2 mi
Weather by CustomWeather, © 2015

See weather overviewHow to use our weather pages